Location: Ar Ranvel
(48.3000°N, 4.8833°W)
Time: 13:15:33
(UTC+00:00)

N. Korean satellite - Pass Details

Date: 29 September 2021
Orbit: 450 x 495 km, 97.3° (Epoch: 19 October)

Event Time Altitude Azimuth Distance (km) Brightness Sun altitude
Rises 04:46:03 0° 27° (NNE) 2,541 10.9 -15.7°
Reaches altitude 10° 04:48:35 10° 46° (NE) 1,666 10.2 -15.3°
Maximum altitude 04:51:10 19° 93° (E) 1,227 9.6 -14.9°
Drops below altitude 10° 04:53:45 10° 139° (SE) 1,672 9.7 -14.4°
Sets 04:56:18 0° 158° (SSE) 2,555 10.4 -14.0°
